| time (UTC) | temp F | wind direction | speed knots | gust knots | rain 1hr in | rain 24hr in | rain mn in | humidity % | barometer mb |
| 20260905185703 | 55 | 266 | 0.9 | 7.8 | 0.00 | 0.11 | 0.00 | 86 | 1018.1 |
| 20260905185209 | 55 | 193 | 0.9 | 7.8 | 0.00 | 0.11 | 0.00 | 86 | 1017.9 |
| 20260905185204 | 55 | 258 | 0.9 | 7.8 | 0.00 | 0.11 | 0.00 | 86 | 1018.0 |
| 20260905184203 | 55 | 253 | 0.9 | 7.8 | 0.00 | 0.11 | 0.00 | 86 | 1017.8 |
| 20260905183705 | 55 | 256 | 0.9 | 6.1 | 0.00 | 0.11 | 0.00 | 85 | 1017.7 |
| 20260905183203 | 55 | 268 | 0.9 | 6.1 | 0.00 | 0.12 | 0.00 | 85 | 1017.6 |
| 20260905182709 | 55 | 239 | 0.9 | 8.7 | 0.00 | 0.12 | 0.00 | 85 | 1017.6 |
| 20260905182703 | 55 | 231 | 0.9 | 8.7 | 0.00 | 0.12 | 0.00 | 85 | 1017.7 |
| 20260905181705 | 56 | 214 | 0.9 | 7.0 | 0.00 | 0.13 | 0.00 | 85 | 1017.5 |
| 20260905181203 | 56 | 251 | 0.9 | 6.1 | 0.00 | 0.15 | 0.00 | 85 | 1017.3 |
| 20260905180704 | 56 | 254 | 0.9 | 6.1 | 0.00 | 0.18 | 0.00 | 85 | 1017.3 |
| 20260905180209 | 56 | 261 | 0.9 | 10.4 | 0.00 | 0.18 | 0.00 | 85 | 1017.0 |
| 20260905180203 | 56 | 237 | 0.9 | 10.4 | 0.00 | 0.18 | 0.00 | 85 | 1017.2 |
| 20260905175203 | 56 | 280 | 0.9 | 6.1 | 0.00 | 0.18 | 0.00 | 85 | 1016.8 |
| 20260905174704 | 56 | 248 | 0.9 | 6.1 | 0.00 | 0.18 | 0.00 | 85 | 1016.6 |
| 20260905174204 | 56 | 271 | 0.9 | 7.0 | 0.00 | 0.18 | 0.00 | 85 | 1016.7 |
| 20260905173703 | 56 | 267 | 0.9 | 7.0 | 0.00 | 0.18 | 0.00 | 85 | 1016.6 |
| 20260905173202 | 56 | 224 | 0.9 | 8.7 | 0.00 | 0.18 | 0.00 | 85 | 1016.6 |
| 20260905172700 | 56 | 222 | 0.9 | 8.7 | 0.00 | 0.18 | 0.00 | 85 | 1016.5 |
| 20260905172202 | 56 | 211 | 0.9 | 8.7 | 0.00 | 0.18 | 0.00 | 85 | 1016.3 |
| 20260905171700 | 56 | 254 | 1.7 | 10.4 | 0.00 | 0.18 | 0.00 | 85 | 1016.2 |
| 20260905171202 | 55 | 226 | 0.9 | 10.4 | 0.00 | 0.18 | 0.00 | 85 | 1016.1 |
| 20260905170706 | 55 | 347 | 0.9 | 7.0 | 0.00 | 0.18 | 0.00 | 85 | 1016.0 |
| 20260905170700 | 56 | 262 | 0.0 | 6.1 | 0.00 | 0.18 | 0.00 | 85 | 1016.1 |
| 20260905165700 | 55 | 49 | 0.9 | 10.4 | 0.00 | 0.19 | 0.00 | 85 | 1015.8 |
| 20260905165201 | 55 | 239 | 0.9 | 10.4 | 0.00 | 0.19 | 0.00 | 85 | 1015.8 |
| 20260905164658 | 55 | 221 | 0.9 | 6.1 | 0.00 | 0.19 | 0.00 | 85 | 1015.8 |
| 20260905164203 | 55 | 254 | 0.9 | 12.2 | 0.00 | 0.19 | 0.00 | 86 | 1015.9 |
| 20260905164159 | 55 | 241 | 0.9 | 12.2 | 0.00 | 0.19 | 0.00 | 85 | 1015.9 |
| 20260905163826 | 55 | 251 | 1.7 | 10.4 | 0.00 | 0.19 | 0.00 | 86 | 1015.7 |
| 20260905162702 | 55 | 224 | 0.0 | 5.2 | 0.00 | 0.19 | 0.00 | 85 | 1015.5 |
| 20260905162656 | 55 | 263 | 0.9 | 7.8 | 0.00 | 0.19 | 0.00 | 86 | 1015.6 |
| 20260905161659 | 55 | 249 | 0.9 | 8.7 | 0.00 | 0.20 | 0.00 | 85 | 1015.5 |
| 20260905161157 | 55 | 248 | 0.9 | 8.7 | 0.00 | 0.20 | 0.00 | 85 | 1015.6 |
| 20260905160658 | 55 | 224 | 0.9 | 7.0 | 0.00 | 0.20 | 0.00 | 85 | 1015.6 |
| 20260905160158 | 55 | 205 | 0.9 | 7.0 | 0.00 | 0.20 | 0.00 | 85 | 1015.6 |
| 20260905155704 | 55 | 245 | 0.9 | 8.7 | 0.00 | 0.20 | 0.00 | 85 | 1015.3 |
| 20260905155658 | 55 | 276 | 0.9 | 8.7 | 0.00 | 0.20 | 0.00 | 85 | 1015.4 |
| 20260905154656 | 55 | 226 | 0.9 | 9.6 | 0.00 | 0.21 | 0.00 | 85 | 1015.2 |
| 20260905154204 | 56 | 244 | 1.7 | 11.3 | 0.00 | 0.21 | 0.00 | 85 | 1015.0 |
| 20260905154154 | 56 | 220 | 0.9 | 9.6 | 0.00 | 0.21 | 0.00 | 85 | 1015.1 |
| 20260905153657 | 56 | 246 | 0.9 | 7.8 | 0.00 | 0.21 | 0.00 | 85 | 1015.0 |
| 20260905152701 | 56 | 289 | 1.7 | 9.6 | 0.00 | 0.21 | 0.00 | 84 | 1014.8 |
| 20260905152655 | 56 | 218 | 1.7 | 11.3 | 0.00 | 0.21 | 0.00 | 84 | 1014.9 |
| 20260905151657 | 56 | 104 | 1.7 | 9.6 | 0.00 | 0.21 | 0.00 | 85 | 1014.8 |
| 20260905151155 | 56 | 289 | 0.9 | 9.6 | 0.00 | 0.21 | 0.00 | 85 | 1014.6 |
| 20260905150654 | 56 | 256 | 0.9 | 7.0 | 0.00 | 0.21 | 0.00 | 85 | 1014.5 |
| 20260905150154 | 56 | 10 | 0.9 | 6.1 | 0.00 | 0.21 | 0.00 | 85 | 1014.3 |
| 20260905145656 | 56 | 317 | 0.9 | 8.7 | 0.00 | 0.21 | 0.00 | 85 | 1014.1 |
| 20260905145153 | 56 | 193 | 0.9 | 8.7 | 0.00 | 0.21 | 0.00 | 85 | 1014.1 |
| 20260905144653 | 55 | 269 | 0.9 | 7.0 | 0.00 | 0.21 | 0.00 | 85 | 1013.8 |
| 20260905144159 | 56 | 258 | 0.9 | 7.0 | 0.00 | 0.21 | 0.00 | 85 | 1013.6 |
| 20260905144153 | 56 | 239 | 0.9 | 7.0 | 0.00 | 0.21 | 0.00 | 85 | 1013.7 |
| 20260905143152 | 55 | 256 | 0.9 | 8.7 | 0.00 | 0.21 | 0.00 | 85 | 1013.7 |
| 20260905142658 | 55 | 219 | 0.9 | 7.0 | 0.00 | 0.21 | 0.00 | 85 | 1013.4 |
| 20260905142653 | 55 | 227 | 0.9 | 8.7 | 0.00 | 0.21 | 0.00 | 85 | 1013.6 |
| 20260905141654 | 55 | 241 | 0.9 | 7.0 | 0.00 | 0.21 | 0.00 | 85 | 1013.4 |
| 20260905141154 | 55 | 208 | 0.9 | 3.5 | 0.00 | 0.22 | 0.00 | 85 | 1013.3 |
| 20260905140652 | 55 | 269 | 0.9 | 5.2 | 0.00 | 0.22 | 0.00 | 85 | 1013.2 |
| 20260905140154 | 55 | 226 | 0.9 | 5.2 | 0.00 | 0.24 | 0.00 | 85 | 1013.1 |
| 20260905140149 | 55 | 319 | 0.9 | 9.6 | 0.00 | 0.26 | 0.26 | 85 | 1013.1 |
| 20260905135149 | 55 | 276 | 1.7 | 10.4 | 0.00 | 0.26 | 0.26 | 85 | 1013.0 |
| 20260905134653 | 55 | 320 | 1.7 | 11.3 | 0.00 | 0.26 | 0.26 | 85 | 1012.9 |
| 20260905134649 | 55 | 301 | 0.9 | 10.4 | 0.00 | 0.26 | 0.26 | 85 | 1012.9 |
| 20260905133648 | 55 | 283 | 1.7 | 11.3 | 0.00 | 0.26 | 0.26 | 85 | 1012.8 |
| 20260905133147 | 55 | 308 | 0.9 | 9.6 | 0.00 | 0.26 | 0.26 | 85 | 1012.6 |
| 20260905132653 | 55 | 314 | 0.9 | 7.8 | 0.00 | 0.26 | 0.26 | 84 | 1012.6 |
| 20260905132648 | 55 | 283 | 0.9 | 7.8 | 0.00 | 0.26 | 0.26 | 84 | 1012.5 |
| 20260905131649 | 55 | 301 | 0.9 | 7.0 | 0.00 | 0.26 | 0.26 | 83 | 1012.5 |
| 20260905131148 | 55 | 332 | 1.7 | 8.7 | 0.00 | 0.26 | 0.26 | 83 | 1012.4 |
| 20260905130649 | 55 | 294 | 1.7 | 8.7 | 0.00 | 0.26 | 0.26 | 83 | 1012.3 |
| 20260905130148 | 55 | 303 | 1.7 | 7.8 | 0.00 | 0.26 | 0.26 | 82 | 1012.2 |
| 20260905125651 | 56 | 303 | 1.7 | 10.4 | 0.00 | 0.26 | 0.26 | 82 | 1012.2 |
| 20260905125148 | 56 | 287 | 2.6 | 12.2 | 0.00 | 0.26 | 0.26 | 81 | 1012.1 |
| 20260905124646 | 56 | 283 | 2.6 | 12.2 | 0.00 | 0.26 | 0.26 | 80 | 1012.0 |
| 20260905124146 | 55 | 293 | 2.6 | 10.4 | 0.00 | 0.26 | 0.26 | 79 | 1012.0 |
| 20260905123647 | 56 | 307 | 3.5 | 10.4 | 0.00 | 0.26 | 0.26 | 79 | 1011.7 |
| 20260905123147 | 56 | 307 | 3.5 | 11.3 | 0.00 | 0.26 | 0.26 | 78 | 1011.7 |
| 20260905122646 | 56 | 310 | 2.6 | 11.3 | 0.00 | 0.26 | 0.26 | 77 | 1011.7 |
| 20260905122153 | 56 | 299 | 3.5 | 9.6 | 0.00 | 0.26 | 0.26 | 77 | 1011.5 |
| 20260905122148 | 56 | 291 | 2.6 | 11.3 | 0.00 | 0.26 | 0.26 | 77 | 1011.5 |
| 20260905121146 | 56 | 294 | 3.5 | 9.6 | 0.00 | 0.27 | 0.26 | 77 | 1011.4 |
| 20260905120646 | 56 | 316 | 3.5 | 11.3 | 0.00 | 0.27 | 0.26 | 77 | 1011.3 |
| 20260905120146 | 56 | 316 | 3.5 | 11.3 | 0.00 | 0.27 | 0.26 | 77 | 1011.3 |
| 20260905115646 | 56 | 334 | 2.6 | 7.8 | 0.00 | 0.27 | 0.26 | 77 | 1011.2 |
| 20260905115317 | 56 | 334 | 3.5 | 11.3 | 0.00 | 0.28 | 0.26 | 78 | 1011.0 |
| 20260905115146 | 56 | 285 | 3.5 | 9.6 | 0.00 | 0.28 | 0.26 | 77 | 1011.2 |
| 20260905113647 | 56 | 304 | 2.6 | 11.3 | 0.00 | 0.28 | 0.26 | 78 | 1010.9 |
| 20260905113145 | 56 | 288 | 2.6 | 8.7 | 0.00 | 0.28 | 0.26 | 78 | 1011.0 |
| 20260905112644 | 56 | 298 | 2.6 | 12.2 | 0.00 | 0.28 | 0.26 | 78 | 1010.9 |
| 20260905112143 | 56 | 301 | 3.5 | 13.0 | 0.00 | 0.28 | 0.26 | 77 | 1010.7 |
| 20260905111645 | 56 | 290 | 3.5 | 13.0 | 0.00 | 0.28 | 0.26 | 76 | 1010.7 |
| 20260905111151 | 56 | 332 | 2.6 | 9.6 | 0.00 | 0.28 | 0.26 | 74 | 1010.6 |
| 20260905111145 | 56 | 332 | 3.5 | 11.3 | 0.00 | 0.28 | 0.26 | 75 | 1010.6 |
| 20260905110144 | 56 | 311 | 2.6 | 12.2 | 0.00 | 0.28 | 0.26 | 74 | 1010.6 |
| 20260905105645 | 56 | 302 | 3.5 | 12.2 | 0.00 | 0.28 | 0.26 | 74 | 1010.4 |
| 20260905105144 | 56 | 256 | 2.6 | 15.6 | 0.00 | 0.28 | 0.26 | 74 | 1010.3 |
| 20260905104645 | 56 | 310 | 2.6 | 15.6 | 0.00 | 0.28 | 0.26 | 74 | 1010.1 |
| 20260905104141 | 56 | 329 | 3.5 | 13.0 | 0.00 | 0.28 | 0.26 | 74 | 1010.0 |
| 20260905103643 | 56 | 305 | 4.3 | 13.0 | 0.00 | 0.28 | 0.26 | 74 | 1009.8 |
| 20260905103141 | 56 | 306 | 3.5 | 13.9 | 0.00 | 0.28 | 0.26 | 74 | 1009.8 |
| 20260905102649 | 56 | 358 | 2.6 | 12.2 | 0.00 | 0.28 | 0.26 | 74 | 1009.6 |
| 20260905102643 | 56 | 271 | 3.5 | 13.9 | 0.00 | 0.28 | 0.26 | 74 | 1009.6 |
| 20260905101641 | 56 | 271 | 2.6 | 12.2 | 0.00 | 0.28 | 0.26 | 74 | 1009.5 |
| 20260905101141 | 56 | 342 | 3.5 | 9.6 | 0.00 | 0.28 | 0.26 | 74 | 1009.5 |
| 20260905100645 | 56 | 293 | 4.3 | 11.3 | 0.00 | 0.28 | 0.26 | 73 | 1009.3 |
| 20260905100640 | 56 | 306 | 3.5 | 9.6 | 0.00 | 0.28 | 0.26 | 73 | 1009.4 |
| 20260905095640 | 56 | 316 | 5.2 | 11.3 | 0.00 | 0.28 | 0.26 | 73 | 1009.2 |
| 20260905095137 | 56 | 306 | 3.5 | 11.3 | 0.00 | 0.28 | 0.26 | 73 | 1009.1 |
| 20260905094640 | 56 | 324 | 3.5 | 14.8 | 0.00 | 0.28 | 0.26 | 74 | 1008.9 |
| 20260905094140 | 56 | 296 | 4.3 | 14.8 | 0.00 | 0.28 | 0.26 | 73 | 1008.7 |
| 20260905094136 | 56 | 318 | 3.5 | 13.0 | 0.00 | 0.28 | 0.26 | 73 | 1008.6 |
| 20260905093137 | 56 | 291 | 2.6 | 9.6 | 0.00 | 0.28 | 0.26 | 74 | 1008.6 |
| 20260905092636 | 56 | 312 | 3.5 | 12.2 | 0.00 | 0.28 | 0.26 | 74 | 1008.5 |
| 20260905092134 | 56 | 298 | 2.6 | 12.2 | 0.00 | 0.28 | 0.26 | 76 | 1008.6 |
| 20260905091635 | 56 | 310 | 2.6 | 12.2 | 0.00 | 0.28 | 0.26 | 77 | 1008.5 |
| 20260905091134 | 56 | 310 | 2.6 | 12.2 | 0.00 | 0.28 | 0.26 | 78 | 1008.3 |
| 20260905090634 | 56 | 295 | 3.5 | 10.4 | 0.00 | 0.28 | 0.26 | 78 | 1008.1 |
| 20260905090134 | 56 | 307 | 3.5 | 7.8 | 0.00 | 0.28 | 0.26 | 79 | 1008.0 |
| 20260905085633 | 56 | 303 | 3.5 | 8.7 | 0.00 | 0.28 | 0.26 | 80 | 1007.9 |
| 20260905085135 | 55 | 307 | 2.6 | 8.7 | 0.00 | 0.28 | 0.26 | 81 | 1007.9 |
| 20260905084640 | 55 | 295 | 0.0 | 3.5 | 0.00 | 0.28 | 0.26 | 82 | 1007.7 |
| 20260905084634 | 55 | 309 | 0.9 | 7.0 | 0.00 | 0.28 | 0.26 | 82 | 1007.9 |
| 20260905083633 | 55 | 291 | 0.0 | 6.1 | 0.00 | 0.28 | 0.26 | 82 | 1007.6 |
| 20260905083131 | 55 | 306 | 0.0 | 6.1 | 0.01 | 0.28 | 0.26 | 82 | 1007.4 |
| 20260905082633 | 55 | 339 | 0.9 | 6.1 | 0.01 | 0.28 | 0.26 | 82 | 1007.4 |
| 20260905082131 | 55 | 270 | 0.9 | 6.1 | 0.01 | 0.28 | 0.26 | 82 | 1007.2 |
| 20260905081629 | 55 | 313 | 0.9 | 7.0 | 0.01 | 0.28 | 0.26 | 82 | 1007.1 |
| 20260905081129 | 55 | 312 | 0.9 | 7.0 | 0.01 | 0.28 | 0.26 | 83 | 1006.9 |
| 20260905080630 | 55 | 297 | 0.9 | 6.1 | 0.01 | 0.28 | 0.26 | 83 | 1006.9 |
| 20260905080129 | 55 | 286 | 1.7 | 8.7 | 0.01 | 0.28 | 0.26 | 84 | 1006.9 |
| 20260905075630 | 55 | 292 | 2.6 | 8.7 | 0.01 | 0.28 | 0.26 | 84 | 1006.8 |
| 20260905075129 | 55 | 304 | 1.7 | 7.8 | 0.02 | 0.28 | 0.26 | 85 | 1006.7 |
| 20260905074636 | 55 | 314 | 3.5 | 11.3 | 0.06 | 0.28 | 0.26 | 85 | 1006.5 |
| 20260905074630 | 55 | 287 | 1.7 | 9.6 | 0.05 | 0.28 | 0.26 | 85 | 1006.6 |
| 20260905073635 | 55 | 290 | 1.7 | 9.6 | 0.06 | 0.28 | 0.25 | 86 | 1006.6 |
| 20260905073629 | 55 | 306 | 2.6 | 11.3 | 0.06 | 0.28 | 0.26 | 86 | 1006.6 |
| 20260905073255 | 56 | 263 | 0.9 | 13.0 | 0.06 | 0.28 | 0.25 | 87 | 1006.7 |
| 20260905072134 | 56 | 237 | 0.9 | 6.1 | 0.06 | 0.28 | 0.25 | 86 | 1006.4 |
| 20260905072130 | 56 | 339 | 0.9 | 13.0 | 0.06 | 0.28 | 0.25 | 87 | 1006.6 |
| 20260905071129 | 56 | 218 | 0.9 | 6.1 | 0.06 | 0.28 | 0.25 | 85 | 1006.1 |
| 20260905070635 | 56 | 241 | 2.6 | 13.0 | 0.06 | 0.28 | 0.25 | 82 | 1005.7 |
| 20260905070628 | 56 | 268 | 1.7 | 7.8 | 0.06 | 0.28 | 0.25 | 84 | 1005.9 |
| 20260905065633 | 58 | 237 | 5.2 | 12.2 | 0.04 | 0.26 | 0.24 | 78 | 1006.1 |
| 20260905065627 | 57 | 175 | 4.3 | 13.0 | 0.06 | 0.28 | 0.25 | 81 | 1005.7 |
| 20260905064633 | 62 | 206 | 6.1 | 20.9 | 0.00 | 0.22 | 0.20 | 62 | 1005.5 |
| 20260905064627 | 60 | 198 | 5.2 | 13.0 | 0.02 | 0.24 | 0.22 | 70 | 1005.8 |
| 20260905063627 | 64 | 268 | 7.0 | 20.9 | 0.00 | 0.22 | 0.20 | 56 | 1005.0 |
| 20260905063133 | 65 | 315 | 4.3 | 12.2 | 0.00 | 0.22 | 0.20 | 57 | 1004.6 |
| 20260905063128 | 64 | 320 | 5.2 | 15.6 | 0.00 | 0.22 | 0.20 | 55 | 1004.7 |
| 20260905062129 | 65 | 312 | 4.3 | 10.4 | 0.00 | 0.22 | 0.20 | 56 | 1004.6 |
| 20260905061626 | 65 | 293 | 4.3 | 9.6 | 0.00 | 0.22 | 0.20 | 55 | 1004.6 |
| 20260905061127 | 65 | 295 | 3.5 | 10.4 | 0.00 | 0.22 | 0.20 | 56 | 1004.6 |
| 20260905060628 | 65 | 303 | 3.5 | 10.4 | 0.00 | 0.22 | 0.20 | 57 | 1004.6 |
| 20260905060133 | 65 | 315 | 3.5 | 13.0 | 0.00 | 0.22 | 0.20 | 58 | 1004.8 |
| 20260905060127 | 65 | 319 | 3.5 | 9.6 | 0.00 | 0.22 | 0.20 | 57 | 1004.7 |
| 20260905055753 | 64 | 321 | 2.6 | 12.2 | 0.00 | 0.22 | 0.20 | 60 | 1004.9 |
| 20260905055124 | 64 | 322 | 3.5 | 13.0 | 0.00 | 0.22 | 0.20 | 58 | 1004.9 |
| 20260905054122 | 64 | 294 | 3.5 | 13.9 | 0.00 | 0.22 | 0.20 | 60 | 1004.9 |
| 20260905053624 | 64 | 272 | 4.3 | 14.8 | 0.00 | 0.22 | 0.20 | 61 | 1004.9 |
| 20260905053123 | 65 | 268 | 3.5 | 14.8 | 0.00 | 0.22 | 0.20 | 56 | 1004.9 |
| 20260905052625 | 66 | 281 | 2.6 | 16.5 | 0.00 | 0.22 | 0.20 | 50 | 1004.5 |
| 20260905052122 | 66 | 305 | 2.6 | 16.5 | 0.00 | 0.22 | 0.20 | 51 | 1004.2 |
| 20260905051623 | 66 | 315 | 3.5 | 11.3 | 0.00 | 0.22 | 0.20 | 52 | 1004.2 |
| 20260905051129 | 67 | 309 | 4.3 | 12.2 | 0.00 | 0.22 | 0.20 | 50 | 1004.1 |
| 20260905051122 | 66 | 297 | 4.3 | 11.3 | 0.00 | 0.22 | 0.20 | 50 | 1004.2 |
| 20260905050123 | 67 | 307 | 5.2 | 15.6 | 0.00 | 0.22 | 0.20 | 49 | 1004.1 |
| 20260905045625 | 67 | 333 | 4.3 | 18.2 | 0.00 | 0.22 | 0.20 | 46 | 1004.1 |
| 20260905045123 | 67 | 322 | 4.3 | 18.2 | 0.00 | 0.22 | 0.20 | 47 | 1004.1 |
| 20260905044627 | 67 | 291 | 4.3 | 12.2 | 0.00 | 0.22 | 0.20 | 46 | 1003.9 |
| 20260905044621 | 67 | 307 | 3.5 | 12.2 | 0.00 | 0.22 | 0.20 | 46 | 1003.9 |
| 20260905043621 | 67 | 293 | 4.3 | 13.9 | 0.00 | 0.22 | 0.20 | 46 | 1003.9 |
| 20260905043128 | 67 | 290 | 4.3 | 12.2 | 0.00 | 0.22 | 0.20 | 48 | 1003.8 |
| 20260905043123 | 67 | 57 | 4.3 | 13.9 | 0.00 | 0.22 | 0.20 | 46 | 1003.9 |
| 20260905042618 | 67 | 256 | 4.3 | 12.2 | 0.00 | 0.22 | 0.20 | 45 | 1003.8 |
| 20260905041624 | 67 | 289 | 6.1 | 19.1 | 0.00 | 0.22 | 0.20 | 47 | 1003.9 |
| 20260905041618 | 67 | 295 | 5.2 | 14.8 | 0.00 | 0.22 | 0.20 | 48 | 1003.8 |
| 20260905040626 | 67 | 283 | 4.3 | 17.4 | 0.00 | 0.22 | 0.20 | 48 | 1003.8 |
| 20260905040620 | 67 | 247 | 6.1 | 19.1 | 0.00 | 0.22 | 0.20 | 46 | 1003.7 |
| 20260905035625 | 67 | 246 | 7.0 | 23.5 | 0.00 | 0.22 | 0.20 | 49 | 1003.9 |
| 20260905035620 | 67 | 277 | 4.3 | 19.1 | 0.00 | 0.22 | 0.20 | 50 | 1003.8 |
| 20260905035246 | 67 | 333 | 6.1 | 23.5 | 0.00 | 0.22 | 0.20 | 49 | 1003.9 |
| 20260905034120 | 66 | 333 | 5.2 | 20.9 | 0.00 | 0.22 | 0.20 | 52 | 1003.8 |
| 20260905033616 | 66 | 280 | 4.3 | 14.8 | 0.00 | 0.22 | 0.20 | 59 | 1004.0 |
| 20260905033118 | 65 | 261 | 3.5 | 13.9 | 0.00 | 0.22 | 0.20 | 60 | 1004.1 |
| 20260905032617 | 66 | 306 | 2.6 | 10.4 | 0.00 | 0.22 | 0.20 | 61 | 1004.1 |
| 20260905032117 | 66 | 273 | 2.6 | 14.8 | 0.00 | 0.22 | 0.20 | 62 | 1004.1 |
| 20260905031617 | 65 | 322 | 2.6 | 14.8 | 0.00 | 0.22 | 0.20 | 60 | 1004.2 |
| 20260905031117 | 65 | 274 | 2.6 | 9.6 | 0.00 | 0.22 | 0.20 | 62 | 1004.2 |
| 20260905030617 | 65 | 214 | 1.7 | 9.6 | 0.00 | 0.22 | 0.20 | 65 | 1004.3 |
| 20260905030118 | 64 | 342 | 1.7 | 8.7 | 0.00 | 0.22 | 0.20 | 65 | 1004.5 |
| 20260905025624 | 63 | 4 | 1.7 | 7.8 | 0.00 | 0.22 | 0.20 | 66 | 1004.5 |
| 20260905025618 | 64 | 243 | 2.6 | 7.8 | 0.00 | 0.22 | 0.20 | 65 | 1004.5 |
| 20260905024615 | 62 | 296 | 2.6 | 9.6 | 0.00 | 0.22 | 0.20 | 66 | 1004.6 |
| 20260905024114 | 62 | 309 | 2.6 | 10.4 | 0.00 | 0.22 | 0.20 | 66 | 1004.5 |
| 20260905023625 | 61 | 280 | 1.7 | 8.7 | 0.00 | 0.22 | 0.20 | 66 | 1004.6 |
| 20260905023615 | 61 | 204 | 2.6 | 10.4 | 0.00 | 0.22 | 0.20 | 65 | 1004.7 |
| 20260905022614 | 61 | 281 | 2.6 | 17.4 | 0.00 | 0.22 | 0.20 | 63 | 1004.5 |
| 20260905022114 | 62 | 254 | 4.3 | 17.4 | 0.00 | 0.22 | 0.20 | 61 | 1004.8 |
| 20260905021611 | 64 | 237 | 5.2 | 20.0 | 0.00 | 0.22 | 0.20 | 55 | 1004.9 |
| 20260905021112 | 66 | 313 | 7.0 | 20.0 | 0.00 | 0.22 | 0.20 | 54 | 1004.6 |
| 20260905020610 | 66 | 289 | 9.6 | 24.3 | 0.00 | 0.22 | 0.20 | 52 | 1004.2 |
| 20260905020112 | 66 | 281 | 11.3 | 24.3 | 0.00 | 0.22 | 0.20 | 52 | 1004.3 |
| 20260905015610 | 67 | 287 | 11.3 | 23.5 | 0.00 | 0.22 | 0.20 | 54 | 1004.1 |
| 20260905015116 | 66 | 320 | 10.4 | 24.3 | 0.00 | 0.22 | 0.20 | 52 | 1004.4 |
| 20260905015110 | 67 | 311 | 11.3 | 23.5 | 0.00 | 0.22 | 0.20 | 52 | 1004.3 |
| 20260905014737 | 67 | 324 | 10.4 | 25.2 | 0.00 | 0.22 | 0.20 | 56 | 1004.4 |
| 20260905013616 | 66 | 304 | 9.6 | 20.9 | 0.00 | 0.22 | 0.20 | 56 | 1004.5 |
| 20260905013608 | 66 | 343 | 11.3 | 25.2 | 0.00 | 0.22 | 0.20 | 55 | 1004.3 |
| 20260905013109 | 66 | 291 | 11.3 | 20.9 | 0.00 | 0.22 | 0.20 | 55 | 1004.3 |
| 20260905012109 | 66 | 310 | 10.4 | 20.9 | 0.00 | 0.22 | 0.20 | 56 | 1004.5 |
| 20260905011616 | 65 | 313 | 9.6 | 20.0 | 0.00 | 0.22 | 0.20 | 57 | 1004.5 |
| 20260905011610 | 65 | 301 | 11.3 | 20.9 | 0.00 | 0.22 | 0.20 | 56 | 1004.6 |
| 20260905010111 | 65 | 299 | 7.0 | 13.9 | 0.00 | 0.22 | 0.20 | 65 | 1004.7 |
| 20260905005610 | 65 | 304 | 7.8 | 13.9 | 0.00 | 0.22 | 0.20 | 66 | 1004.5 |
| 20260905005110 | 64 | 297 | 7.8 | 14.8 | 0.00 | 0.22 | 0.20 | 67 | 1004.6 |
| 20260905004609 | 64 | 4 | 7.0 | 14.8 | 0.00 | 0.22 | 0.20 | 68 | 1004.6 |
| 20260905004109 | 64 | 333 | 6.1 | 13.9 | 0.00 | 0.22 | 0.20 | 70 | 1004.7 |
| 20260905003609 | 64 | 314 | 7.0 | 15.6 | 0.00 | 0.22 | 0.20 | 71 | 1004.7 |
| 20260905003108 | 63 | 359 | 6.1 | 15.6 | 0.00 | 0.22 | 0.20 | 73 | 1004.8 |
| 20260905002608 | 63 | 328 | 5.2 | 10.4 | 0.00 | 0.22 | 0.20 | 76 | 1004.8 |
| 20260905002108 | 62 | 349 | 5.2 | 16.5 | 0.00 | 0.22 | 0.20 | 77 | 1004.8 |
| 20260905001610 | 62 | 353 | 5.2 | 16.5 | 0.00 | 0.22 | 0.20 | 78 | 1004.8 |
| 20260905001108 | 62 | 337 | 4.3 | 12.2 | 0.00 | 0.22 | 0.20 | 79 | 1004.8 |
| 20260905000609 | 61 | 324 | 4.3 | 9.6 | 0.00 | 0.22 | 0.20 | 79 | 1004.8 |
| 20260905000108 | 61 | 300 | 4.3 | 9.6 | 0.00 | 0.22 | 0.20 | 80 | 1004.7 |
| 20260904235608 | 61 | 354 | 6.1 | 13.0 | 0.00 | 0.22 | 0.20 | 80 | 1004.8 |
| 20260904235114 | 61 | 356 | 6.1 | 12.2 | 0.00 | 0.22 | 0.20 | 81 | 1004.9 |
| 20260904235108 | 61 | 333 | 6.1 | 13.0 | 0.00 | 0.22 | 0.20 | 80 | 1004.9 |
| 20260904234108 | 60 | 4 | 6.1 | 13.0 | 0.00 | 0.22 | 0.20 | 81 | 1004.9 |
| 20260904233608 | 60 | 6 | 5.2 | 13.0 | 0.00 | 0.22 | 0.20 | 81 | 1005.0 |
| 20260904233109 | 60 | 9 | 4.3 | 13.0 | 0.00 | 0.22 | 0.20 | 82 | 1005.0 |
| 20260904232609 | 60 | 352 | 4.3 | 12.2 | 0.00 | 0.22 | 0.20 | 82 | 1004.9 |
| 20260904232114 | 60 | 289 | 5.2 | 13.9 | 0.00 | 0.22 | 0.20 | 83 | 1005.0 |
| 20260904232108 | 60 | 332 | 4.3 | 10.4 | 0.00 | 0.22 | 0.20 | 83 | 1005.0 |
| 20260904231107 | 60 | 341 | 5.2 | 13.9 | 0.00 | 0.22 | 0.20 | 83 | 1005.1 |
| 20260904230611 | 59 | 6 | 4.3 | 12.2 | 0.00 | 0.22 | 0.20 | 83 | 1005.1 |
| 20260904230116 | 59 | 6 | 5.2 | 13.9 | 0.00 | 0.22 | 0.20 | 84 | 1005.0 |
| 20260904230109 | 59 | 24 | 4.3 | 12.2 | 0.00 | 0.22 | 0.20 | 83 | 1005.1 |
| 20260904225108 | 59 | 345 | 6.1 | 13.9 | 0.00 | 0.22 | 0.20 | 84 | 1005.1 |
| 20260904224607 | 59 | 352 | 5.2 | 13.0 | 0.00 | 0.22 | 0.20 | 84 | 1005.0 |
| 20260904224111 | 59 | 343 | 6.1 | 13.9 | 0.00 | 0.22 | 0.20 | 85 | 1005.0 |
| 20260904224105 | 59 | 358 | 6.1 | 13.0 | 0.00 | 0.22 | 0.20 | 84 | 1005.1 |
| 20260904223104 | 59 | 8 | 6.1 | 13.9 | 0.01 | 0.22 | 0.20 | 85 | 1004.8 |
| 20260904222611 | 58 | 349 | 5.2 | 13.0 | 0.01 | 0.22 | 0.20 | 86 | 1005.2 |
| 20260904222605 | 58 | 353 | 5.2 | 13.0 | 0.01 | 0.22 | 0.20 | 86 | 1005.2 |
| 20260904221604 | 58 | 330 | 5.2 | 12.2 | 0.01 | 0.22 | 0.20 | 86 | 1005.2 |
| 20260904221102 | 58 | 0 | 5.2 | 11.3 | 0.01 | 0.22 | 0.20 | 86 | 1005.4 |
| 20260904220559 | 58 | 21 | 5.2 | 11.3 | 0.02 | 0.22 | 0.20 | 87 | 1005.3 |
| 20260904220059 | 58 | 312 | 5.2 | 11.3 | 0.02 | 0.22 | 0.20 | 87 | 1005.4 |
| 20260904215559 | 58 | 40 | 5.2 | 13.0 | 0.02 | 0.22 | 0.20 | 88 | 1005.3 |
| 20260904215058 | 58 | 4 | 4.3 | 13.0 | 0.02 | 0.22 | 0.20 | 88 | 1005.4 |
| 20260904214559 | 57 | 26 | 3.5 | 8.7 | 0.02 | 0.22 | 0.20 | 88 | 1005.6 |
| 20260904214059 | 57 | 12 | 4.3 | 10.4 | 0.02 | 0.22 | 0.20 | 88 | 1005.4 |
| 20260904213557 | 57 | 333 | 4.3 | 10.4 | 0.02 | 0.22 | 0.20 | 88 | 1005.4 |
| 20260904213055 | 57 | 335 | 5.2 | 13.0 | 0.02 | 0.21 | 0.19 | 88 | 1005.3 |
| 20260904212603 | 57 | 29 | 7.0 | 20.9 | 0.04 | 0.21 | 0.19 | 88 | 1004.8 |
| 20260904212557 | 57 | 27 | 7.0 | 20.9 | 0.03 | 0.21 | 0.19 | 88 | 1004.8 |
| 20260904211556 | 57 | 352 | 5.2 | 13.9 | 0.04 | 0.21 | 0.19 | 87 | 1005.4 |
| 20260904211055 | 58 | 351 | 6.1 | 11.3 | 0.04 | 0.21 | 0.19 | 87 | 1005.2 |
| 20260904210556 | 58 | 9 | 7.0 | 13.9 | 0.03 | 0.20 | 0.18 | 87 | 1005.5 |
| 20260904210056 | 58 | 335 | 7.0 | 13.9 | 0.03 | 0.20 | 0.18 | 87 | 1005.8 |
| 20260904205559 | 58 | 337 | 6.1 | 13.0 | 0.02 | 0.20 | 0.18 | 87 | 1006.2 |
| 20260904205114 | 58 | 330 | 7.0 | 17.4 | 0.02 | 0.20 | 0.17 | 86 | 1006.5 |
| 20260904205105 | 58 | 341 | 7.0 | 17.4 | 0.02 | 0.20 | 0.17 | 87 | 1006.3 |
| 20260904204056 | 58 | 12 | 6.1 | 14.8 | 0.02 | 0.20 | 0.17 | 86 | 1006.5 |
| 20260904203557 | 58 | 2 | 7.0 | 15.6 | 0.02 | 0.20 | 0.17 | 85 | 1006.6 |
| 20260904203055 | 58 | 340 | 7.8 | 15.6 | 0.02 | 0.19 | 0.17 | 84 | 1006.9 |
| 20260904202554 | 59 | 1 | 7.8 | 15.6 | 0.01 | 0.18 | 0.16 | 83 | 1006.9 |
| 20260904202056 | 59 | 348 | 7.0 | 14.8 | 0.00 | 0.17 | 0.15 | 83 | 1006.9 |
| 20260904201554 | 59 | 320 | 7.8 | 15.6 | 0.00 | 0.17 | 0.15 | 83 | 1006.8 |
| 20260904201053 | 59 | 288 | 7.8 | 17.4 | 0.00 | 0.17 | 0.15 | 83 | 1006.7 |
| 20260904200555 | 59 | 2 | 7.8 | 17.4 | 0.00 | 0.17 | 0.15 | 84 | 1006.7 |
| 20260904200051 | 59 | 358 | 7.8 | 13.9 | 0.00 | 0.17 | 0.15 | 84 | 1006.7 |
| 20260904195553 | 59 | 316 | 7.0 | 14.8 | 0.00 | 0.17 | 0.15 | 84 | 1006.7 |
| 20260904195052 | 59 | 337 | 7.0 | 17.4 | 0.00 | 0.17 | 0.15 | 84 | 1006.5 |
| 20260904194552 | 59 | 334 | 7.8 | 17.4 | 0.00 | 0.17 | 0.15 | 84 | 1006.4 |
| 20260904194053 | 59 | 339 | 7.0 | 14.8 | 0.00 | 0.17 | 0.15 | 85 | 1006.3 |
| 20260904193551 | 58 | 331 | 5.2 | 11.3 | 0.00 | 0.17 | 0.15 | 85 | 1006.3 |
| 20260904193051 | 58 | 10 | 6.1 | 12.2 | 0.01 | 0.17 | 0.15 | 85 | 1006.4 |
| 20260904192553 | 58 | 337 | 5.2 | 14.8 | 0.01 | 0.17 | 0.15 | 86 | 1006.7 |
| 20260904192053 | 58 | 341 | 5.2 | 14.8 | 0.01 | 0.17 | 0.15 | 86 | 1006.8 |
| 20260904191553 | 58 | 8 | 5.2 | 13.0 | 0.02 | 0.17 | 0.15 | 86 | 1006.8 |
| 20260904191050 | 58 | 2 | 6.1 | 13.0 | 0.05 | 0.17 | 0.15 | 86 | 1007.0 |
| 20260904190556 | 58 | 8 | 6.1 | 14.8 | 0.07 | 0.17 | 0.15 | 86 | 1007.2 |
| 20260904190550 | 58 | 337 | 6.1 | 13.0 | 0.07 | 0.17 | 0.15 | 86 | 1007.2 |
| 20260904190217 | 58 | 6 | 6.1 | 14.8 | 0.07 | 0.17 | 0.15 | 86 | 1007.1 |